When you browse on this site, cookies collect data to enhance your experience and personalize the content and advertising you see.
Visit our Privacy Policy to learn more. By continuing to use the site, you agree to this use of cookies and data.
  • In Lithuania
  • List of Countries
  • For 7 days
  • Water Temperature
  • Satellite Maps
  • Weather Map
  • Weather Widgets
  • user-avatar
    Login

    Hourly Weather Kurpichi

    Today, 23 April, Tuesday

    Time Temperature Precipitation Wind Pressure Humidity
    00:00 +8°C° 0 mm 3 mps 757 mmHg 57%
    01:00 +8°C° 0 mm 3 mps 757 mmHg 59%
    02:00 +7°C° 0 mm 3 mps 757 mmHg 60%
    03:00 +7°C° 0 mm 3 mps 757 mmHg 61%
    04:00 +7°C° 0 mm 3 mps 757 mmHg 62%
    05:00 +5°C° 0 mm 4 mps 757 mmHg 63%
    06:00 +7°C° 0 mm 4 mps 757 mmHg 61%
    07:00 +9°C° 0 mm 5 mps 757 mmHg 58%
    08:00 +10°C° 0 mm 5 mps 757 mmHg 55%
    09:00 +13°C° 0 mm 6 mps 757 mmHg 49%
    10:00 +14°C° 0 mm 7 mps 757 mmHg 43%
    11:00 +16°C° 0 mm 8 mps 757 mmHg 37%
    12:00 +16°C° 0 mm 8 mps 757 mmHg 37%
    13:00 +17°C° 0 mm 8 mps 757 mmHg 36%
    14:00 +17°C° 0 mm 8 mps 756 mmHg 35%
    15:00 +17°C° 0 mm 8 mps 756 mmHg 37%
    16:00 +17°C° 0 mm 7 mps 756 mmHg 39%
    17:00 +17°C° 0 mm 7 mps 755 mmHg 41%
    18:00 +15°C° 0 mm 6 mps 755 mmHg 44%
    19:00 +14°C° 0 mm 6 mps 755 mmHg 48%
    20:00 +12°C° 0 mm 5 mps 755 mmHg 52%
    21:00 +12°C° 0 mm 5 mps 755 mmHg 52%
    22:00 +11°C° 0 mm 6 mps 755 mmHg 52%
    23:00 +10°C° 0 mm 6 mps 755 mmHg 52%

    Tomorrow, 24 April, Wednesday

    Time Temperature Precipitation Wind Pressure Humidity
    00:00 +10°C° 0 mm 6 mps 755 mmHg 53%
    01:00 +9°C° 0 mm 6 mps 755 mmHg 54%
    02:00 +9°C° 0 mm 6 mps 755 mmHg 55%
    03:00 +9°C° 0 mm 6 mps 755 mmHg 57%
    04:00 +8°C° 0 mm 6 mps 755 mmHg 58%
    05:00 +8°C° 0 mm 6 mps 755 mmHg 60%
    06:00 +9°C° 0 mm 7 mps 755 mmHg 57%
    07:00 +10°C° 0 mm 8 mps 755 mmHg 54%
    08:00 +11°C° 0 mm 9 mps 755 mmHg 52%
    09:00 +12°C° 0 mm 9 mps 755 mmHg 49%
    10:00 +13°C° 0 mm 9 mps 755 mmHg 47%
    11:00 +15°C° 0 mm 9 mps 755 mmHg 44%
    12:00 +16°C° 0 mm 9 mps 754 mmHg 44%
    13:00 +16°C° 0 mm 9 mps 754 mmHg 44%
    14:00 +17°C° 0 mm 9 mps 754 mmHg 43%
    15:00 +17°C° 0 mm 8 mps 754 mmHg 45%
    16:00 +17°C° 0 mm 8 mps 754 mmHg 46%
    17:00 +17°C° 0 mm 7 mps 753 mmHg 48%
    18:00 +16°C° 0 mm 7 mps 753 mmHg 52%
    19:00 +14°C° 0 mm 6 mps 753 mmHg 56%
    20:00 +13°C° 0 mm 5 mps 753 mmHg 60%
    21:00 +13°C° 0 mm 5 mps 754 mmHg 60%
    22:00 +12°C° 0 mm 5 mps 754 mmHg 61%
    23:00 +12°C° 0 mm 5 mps 754 mmHg 62%

    Day after tomorrow, 25 April, Thursday

    Time Temperature Precipitation Wind Pressure Humidity
    00:00 +10°C° 0 mm 5 mps 754 mmHg 62%
    01:00 +10°C° 0 mm 5 mps 753 mmHg 63%
    02:00 +10°C° 0 mm 5 mps 753 mmHg 64%
    03:00 +10°C° 0 mm 5 mps 753 mmHg 66%
    04:00 +9°C° 0 mm 5 mps 753 mmHg 68%
    05:00 +8°C° 0 mm 5 mps 753 mmHg 70%
    06:00 +9°C° 0 mm 5 mps 753 mmHg 69%
    07:00 +10°C° 0 mm 5 mps 753 mmHg 68%
    08:00 +11°C° 0 mm 6 mps 753 mmHg 67%
    09:00 +14°C° 0 mm 6 mps 753 mmHg 64%
    10:00 +16°C° 0 mm 6 mps 753 mmHg 61%
    11:00 +19°C° 0 mm 6 mps 753 mmHg 58%
    12:00 +20°C° 0 mm 6 mps 753 mmHg 55%
    13:00 +21°C° 0 mm 6 mps 753 mmHg 53%
    14:00 +23°C° 0 mm 6 mps 752 mmHg 51%
    15:00 +22°C° 0.1 mm 6 mps 752 mmHg 52%
    16:00 +22°C° 0.1 mm 6 mps 752 mmHg 53%
    17:00 +22°C° 0.1 mm 6 mps 752 mmHg 54%
    18:00 +20°C° 0 mm 5 mps 751 mmHg 59%
    19:00 +19°C° 0 mm 5 mps 751 mmHg 63%
    20:00 +17°C° 0 mm 4 mps 751 mmHg 68%
    21:00 +17°C° 0 mm 4 mps 751 mmHg 69%
    22:00 +15°C° 0 mm 4 mps 751 mmHg 70%
    23:00 +14°C° 0 mm 4 mps 751 mmHg 71%

    26 April, Friday

    Time Temperature Precipitation Wind Pressure Humidity
    00:00 +14°C° 0.2 mm 4 mps 751 mmHg 76%
    01:00 +13°C° 0.2 mm 4 mps 751 mmHg 81%
    02:00 +12°C° 0.2 mm 4 mps 751 mmHg 86%
    03:00 +12°C° 0.2 mm 4 mps 751 mmHg 88%
    04:00 +11°C° 0.2 mm 4 mps 750 mmHg 90%
    05:00 +11°C° 0.2 mm 4 mps 750 mmHg 92%
    06:00 +12°C° 0 mm 4 mps 750 mmHg 89%
    07:00 +13°C° 0 mm 4 mps 750 mmHg 85%
    08:00 +14°C° 0 mm 4 mps 749 mmHg 82%
    09:00 +16°C° 0 mm 5 mps 749 mmHg 77%
    10:00 +19°C° 0 mm 5 mps 749 mmHg 72%
    11:00 +21°C° 0 mm 5 mps 749 mmHg 67%
    12:00 +22°C° 0 mm 5 mps 749 mmHg 62%
    13:00 +25°C° 0 mm 5 mps 748 mmHg 58%
    14:00 +26°C° 0 mm 5 mps 748 mmHg 53%
    15:00 +26°C° 0 mm 5 mps 748 mmHg 53%
    16:00 +26°C° 0 mm 5 mps 747 mmHg 53%
    17:00 +26°C° 0 mm 4 mps 747 mmHg 52%
    18:00 +23°C° 0.1 mm 4 mps 747 mmHg 59%
    19:00 +22°C° 0.1 mm 4 mps 747 mmHg 66%
    20:00 +20°C° 0.1 mm 4 mps 747 mmHg 72%
    21:00 +19°C° 1.1 mm 4 mps 747 mmHg 76%
    22:00 +17°C° 1.1 mm 5 mps 747 mmHg 80%
    23:00 +16°C° 1.1 mm 6 mps 747 mmHg 84%

    27 April, Saturday

    Time Temperature Precipitation Wind Pressure Humidity
    00:00 +16°C° 0.4 mm 5 mps 747 mmHg 86%
    01:00 +15°C° 0.4 mm 4 mps 746 mmHg 89%
    02:00 +16°C° 0.4 mm 3 mps 746 mmHg 91%
    03:00 +16°C° 0 mm 3 mps 746 mmHg 92%
    04:00 +14°C° 0 mm 3 mps 746 mmHg 93%
    05:00 +14°C° 0 mm 3 mps 746 mmHg 94%
    06:00 +16°C° 0 mm 3 mps 746 mmHg 90%
    07:00 +17°C° 0 mm 3 mps 746 mmHg 87%
    08:00 +18°C° 0 mm 3 mps 746 mmHg 83%
    09:00 +19°C° 0 mm 3 mps 746 mmHg 77%
    10:00 +21°C° 0 mm 3 mps 746 mmHg 71%
    11:00 +24°C° 0 mm 3 mps 746 mmHg 65%
    12:00 +25°C° 0.1 mm 3 mps 745 mmHg 61%
    13:00 +25°C° 0.1 mm 3 mps 745 mmHg 56%
    14:00 +26°C° 0.1 mm 3 mps 745 mmHg 52%
    15:00 +25°C° 2.5 mm 3 mps 745 mmHg 61%
    16:00 +23°C° 2.5 mm 2 mps 745 mmHg 71%
    17:00 +20°C° 2.5 mm 2 mps 745 mmHg 80%
    18:00 +19°C° 0 mm 2 mps 745 mmHg 83%
    19:00 +18°C° 0 mm 2 mps 745 mmHg 85%
    20:00 +18°C° 0 mm 2 mps 745 mmHg 88%
    21:00 +17°C° 0 mm 2 mps 745 mmHg 89%
    22:00 +18°C° 0 mm 1 mps 745 mmHg 90%
    23:00 +16°C° 0 mm 1 mps 746 mmHg 91%

    28 April, Sunday

    Time Temperature Precipitation Wind Pressure Humidity
    00:00 +16°C° 0.3 mm 2 mps 746 mmHg 92%
    01:00 +16°C° 0.3 mm 2 mps 746 mmHg 93%
    02:00 +15°C° 0.3 mm 2 mps 746 mmHg 94%
    03:00 +14°C° 0 mm 3 mps 746 mmHg 94%
    04:00 +13°C° 0 mm 3 mps 746 mmHg 95%
    05:00 +13°C° 0 mm 4 mps 746 mmHg 95%
    06:00 +12°C° 0.1 mm 4 mps 746 mmHg 93%
    07:00 +12°C° 0.1 mm 4 mps 747 mmHg 91%
    08:00 +12°C° 0.1 mm 5 mps 747 mmHg 90%
    09:00 +12°C° 0.2 mm 5 mps 747 mmHg 89%
    10:00 +11°C° 0.2 mm 6 mps 747 mmHg 88%
    11:00 +11°C° 0.2 mm 6 mps 748 mmHg 87%
    12:00 +10°C° 1.2 mm 6 mps 748 mmHg 88%
    13:00 +10°C° 1.2 mm 6 mps 748 mmHg 89%
    14:00 +9°C° 1.2 mm 6 mps 748 mmHg 90%
    15:00 +9°C° 1.5 mm 6 mps 748 mmHg 90%
    16:00 +9°C° 1.5 mm 6 mps 749 mmHg 90%
    17:00 +8°C° 1.5 mm 7 mps 749 mmHg 90%
    18:00 +8°C° 2 mm 6 mps 749 mmHg 90%
    19:00 +7°C° 2 mm 6 mps 749 mmHg 91%
    20:00 +7°C° 2 mm 6 mps 749 mmHg 91%
    21:00 +5°C° 2.4 mm 6 mps 749 mmHg 91%
    22:00 +5°C° 2.4 mm 6 mps 750 mmHg 92%
    23:00 +4°C° 2.4 mm 6 mps 750 mmHg 92%
    Show more